sat.trackr.live / text

‹ back to catalog

STARLINK-31349

NORAD 59317 · 2024-056X

PAYLOAD ACTIVE UNKNOWN

§ Identity

Operator
Country
US
Launch date
2024-03-24
Launch site
AFETR
Launch vehicle
Mass (kg)
RCS (m²)

Purposes: comms

External: N2YO · Heavens-Above · Gunter

§ Orbital elements

Epoch: 2026-05-25T01:13:17.862816Z

Period
94.27 min
Inclination
43.0015°
Eccentricity
0.0001237
Mean motion
15.27577431 rev/d
Perigee alt
482.2 km
Apogee alt
483.9 km
Semi-major
6,861.2 km
B*
2.0749e-5
RAAN
159.3828°
Arg perigee
266.1508°
Mean anomaly
93.9202°
Rev number
12,290

§ Raw data

STARLINK-313491 59317U 24056X   26145.05090119  .00000309  00000+0  20749-4 0  99922 59317  43.0015 159.3828 0001237 266.1508  93.9202 15.27577431122908

JSON: /api/v1/satellites/59317 · /tle

For live sub-satellite position, see the globe view (requires WebGL).

§ Visibility from observer

Set your observer location to see the next 7 days of passes ≥ 10°. The values pass through the URL so the page stays shareable.

No JS? Fill the form by hand. The geolocation button needs JavaScript.